Regional Weather Roundup
Issued by NWS Cleveland, OH

Home | Current Version | Previous Version | Text Only | Print | Product List | Glossary Off
Versions: 1 2 3 4 5 6 7 8 9 10 11 12 13 14 15 16 17 18 19 20 21 22 23 24 25 26 27 28 29 30 31 32 33 34 35 36 37 38 39 40 41 42 43 44 45 46 47 48 49 50

000
ASUS41 KCLE 011512
RWRCLE
OHIO REGIONAL WEATHER ROUNDUP
NATIONAL WEATHER SERVICE WILMINGTON, OH
1100 AM EDT SAT OCT 01 2016

NOTE: "FAIR" INDICATES FEW OR NO CLOUDS BELOW 12,000 FEET WITH NO
SIGNIFICANT WEATHER AND/OR OBSTRUCTIONS TO VISIBILITY.

OHZ001>008-015>018-024>027-034-035-043-044-011600-
   NORTHWEST OHIO

CITY           SKY/WX    TMP DP  RH WIND       PRES   REMARKS
DEFIANCE       PTSUNNY   64  56  75 SE6       30.04F
FINDLAY        FAIR      63  55  75 S8        30.05S
TOLEDO EXPRESS FAIR      61  57  87 S5        30.06R
TOLEDO EXEC    FAIR      64  59  83 E7        30.07S
LIMA           PTSUNNY   60  54  80 S7        30.05F
$$

OHZ009>014-019>023-028>033-038-089-011600-
   NORTHEAST OHIO

CITY           SKY/WX    TMP DP  RH WIND       PRES   REMARKS
CLE-HOPKINS    CLOUDY    66  55  67 S7        30.10F
CLE-LAKEFRONT  CLOUDY    63  57  81 S6        30.08F
CUY CO. ARPT   CLOUDY    63  59  88 S8        30.10S
LORAIN-ELYRIA  FAIR      61  54  77 SE3       30.09S
ASHTABULA      CLOUDY    63  59  87 SE8       30.10F
AKRON-CANTON   CLOUDY    62  56  80 S7        30.10R
WOOSTER        FAIR      63  55  75 S6        30.09S
MANSFIELD      FAIR      64  54  69 S10       30.08S
YOUNGSTOWN     CLOUDY    60  57  89 S6        30.11R
$$

OHZ042-051>053-060>062-070>072-077>081-011600-
  SOUTHWEST OHIO

CITY           SKY/WX    TMP DP  RH WIND       PRES   REMARKS
CINC-COVINGTON CLOUDY    59  54  83 S9        30.07R
CINC-LUNKEN    PTSUNNY   59  56  89 SW7       30.08R
HAMILTON       CLOUDY    60  54  80 SW5       30.08R
DAYTON         PTSUNNY   59  54  83 S10       30.06S
WRIGHT-PAT AFB PTSUNNY   59  55  88 S10       30.06S
DAYTON GENERAL PTSUNNY   60  52  74 S9        30.06S
WILMINGTON     FAIR      62  54  74 S14       30.06S
$$

OHZ036-037-039>041-045>050-054>059-063>069-073>076-082>088-011600-
  CENTRAL AND SOUTHEAST OHIO

CITY           SKY/WX    TMP DP  RH WIND       PRES   REMARKS
COLUMBUS       PTSUNNY   61  56  83 S6        30.08R
OSU AIRPORT    CLOUDY    61  55  81 S7        30.07S
BOLTON FIELD   MOSUNNY   59  57  94 SW7       30.08S
RICKENBACK AFB FAIR      58  55  91 S7        30.08R
NEWARK         FAIR      63  56  78 VRB3      30.08S
MARION         FAIR      61  55  81 S9        30.08R
LANCASTER      FAIR      61  57  87 VRB3      30.08S
ZANESVILLE     PTSUNNY   61  56  83 CALM      30.09S
NEW PHILLY     PTSUNNY   65  58  78 SE6       30.09F
$$




USA.gov is the U.S. government's official web portal to all federal, state and local government web resources and services.